Weather in Karyakino

Russia / Republic of Bashkortostan     56°09′23″N   54°17′48″E
temp.,
°C
wind,
m/s
gust,
m/s
humid.,
%
clouds,
%
prec.,
mm/h
press.,
hPa
HPBL,
m
28 february, sun
sun2823:00−11e51093100 1.1 1002421
02:00−13ene4993100 0.4 1001330
05:00−13ne499499 0.6 1002351
08:00−14ne499497 0.2 1002367
11:00−11ne489198 0.3 1003484
14:00−9nne4789100 0.2 1004596
17:00−9nne4889100 0.3 1006622
20:00−12n4993100 0.1 1008416
1 march, mon
mon123:00−13n389397 0.3 1011319
02:00−15n379587 0.1 1012239
05:00−17n369684 0.1 1014173
08:00−20n259873 0.0 101692
11:00−16n259264 0.0 1018279
14:00−12n238595 0.0 1018522
17:00−11nw349097 0.1 1019563
20:00−17wnw2296100 0.1 101921
2 march, tue
tue223:00−19wsw229770 0.1 101920
02:00−20sw239948 0.0 101744
05:00−21ssw379858 0.0 1015162
08:00−19s41094100 0.0 1012292
11:00−16s51093100 0.0 1009351
14:00−13s61193100 0.4 1007497
17:00−10s51092100 1.0 1005620
20:00−10s51193100 0.5 1003589
3 march, wed
wed323:00−9s51094100 0.9 1002504
02:00−8s51095100 0.6 1000451
05:00−7sse4995100 1.6 999401
08:00−6sse2696100 0.6 998255
11:00−4se119598 1.1 998201
14:00−3n3495100 1.0 999432
17:00−4nnw4794100 1.7 999578
20:00−7nnw3992100 0.2 1000363
4 march, thu
thu423:00−9nw2597100 0.2 1002108
02:00−7nw41092100 0.1 1003517
05:00−12nw499489 0.1 1005255
08:00−14nw399577 0.0 1007205
11:00−11nw479374 0.0 1008299
14:00−8wnw469071 0.0 1009446
17:00−7w478982 0.0 1010635
20:00−11sw389588 0.0 1010189